Time,TemperatureF,DewpointF,PressureIn,WindDirection,WindDirectionDegrees,WindSpeedMPH,WindSpeedGustMPH,Humidity,HourlyPrecipIn,Conditions,Clouds,dailyrainin,SoftwareType,DateUTC
2013-01-18 00:05:00,62.2,52.3,29.74,WNW,292,1.6,1.6,70,0.00,,---,0.39,VWS V13.01,2013-01-18 05:05:00,
2013-01-18 00:15:00,61.9,51.6,29.75,West,270,1.3,5.4,69,0.00,,---,0.39,VWS V13.01,2013-01-18 05:15:00,
2013-01-18 00:20:00,61.9,51.6,29.75,NW,315,3.8,3.8,69,0.00,,---,0.39,VWS V13.01,2013-01-18 05:20:00,
2013-01-18 00:25:00,61.9,51.2,29.75,WNW,292,5.4,5.4,68,0.00,,---,0.39,VWS V13.01,2013-01-18 05:25:00,
2013-01-18 00:30:00,61.9,50.8,29.75,NNW,338,2.0,5.6,67,0.00,,---,0.39,VWS V13.01,2013-01-18 05:30:00,
2013-01-18 00:40:00,61.9,50.8,29.75,North,0,1.1,1.8,67,0.00,,---,0.39,VWS V13.01,2013-01-18 05:40:00,
2013-01-18 00:50:00,61.7,50.6,29.76,NNW,338,3.1,3.1,67,0.00,,---,0.39,VWS V13.01,2013-01-18 05:50:00,
2013-01-18 00:55:00,61.5,50.5,29.75,WNW,292,4.7,4.7,67,0.00,,---,0.39,VWS V13.01,2013-01-18 05:55:00,
2013-01-18 01:00:00,61.3,50.3,29.75,WNW,292,8.3,8.3,67,0.00,,---,0.39,VWS V13.01,2013-01-18 06:00:00,
2013-01-18 01:10:00,61.3,50.3,29.75,WNW,292,1.3,8.3,67,0.00,,---,0.39,VWS V13.01,2013-01-18 06:10:00,
2013-01-18 01:20:00,61.2,50.1,29.76,North,0,0.4,0.9,67,0.00,,---,0.39,VWS V13.01,2013-01-18 06:20:00,
2013-01-18 01:25:00,61.2,50.1,29.76,WNW,292,1.6,1.6,67,0.00,,---,0.39,VWS V13.01,2013-01-18 06:25:00,
2013-01-18 01:35:00,61.0,50.4,29.76,WNW,292,1.6,5.1,68,0.00,,---,0.39,VWS V13.01,2013-01-18 06:35:00,
2013-01-18 01:40:00,60.8,49.8,29.75,WNW,292,2.7,2.7,67,0.00,,---,0.39,VWS V13.01,2013-01-18 06:40:00,
2013-01-18 01:50:00,60.6,49.6,29.75,NNW,338,4.0,7.2,67,0.00,,---,0.39,VWS V13.01,2013-01-18 06:50:00,
2013-01-18 01:55:00,60.6,50.0,29.75,WNW,292,3.4,4.0,68,0.00,,---,0.39,VWS V13.01,2013-01-18 06:55:00,
2013-01-18 02:00:00,60.4,49.8,29.75,WNW,292,3.6,3.6,68,0.00,,---,0.39,VWS V13.01,2013-01-18 07:00:00,
2013-01-18 02:10:00,60.4,49.8,29.75,WNW,292,3.6,3.6,68,0.00,,---,0.39,VWS V13.01,2013-01-18 07:10:00,
2013-01-18 02:15:00,60.4,49.8,29.75,WNW,292,3.6,3.6,68,0.00,,---,0.37,VWS V13.01,2013-01-18 07:15:00,
2013-01-18 02:25:00,60.1,49.5,29.75,WNW,292,0.0,0.9,68,0.00,,---,0.37,VWS V13.01,2013-01-18 07:25:00,
2013-01-18 02:35:00,59.9,49.3,29.76,West,270,9.2,9.2,68,0.00,,---,0.37,VWS V13.01,2013-01-18 07:35:00,
2013-01-18 02:45:00,59.7,49.2,29.76,WNW,292,3.8,3.8,68,0.00,,---,0.37,VWS V13.01,2013-01-18 07:45:00,
2013-01-18 02:50:00,59.7,49.2,29.76,WNW,292,11.6,11.6,68,0.00,,---,0.37,VWS V13.01,2013-01-18 07:50:00,
2013-01-18 03:00:00,59.5,49.4,29.76,NNW,338,4.3,4.3,69,0.00,,---,0.37,VWS V13.01,2013-01-18 08:00:00,
2013-01-18 03:10:00,59.5,49.4,29.76,WNW,292,3.1,4.3,69,0.00,,---,0.26,VWS V13.01,2013-01-18 08:10:00,
2013-01-18 03:20:00,59.2,49.0,29.76,NNW,338,0.0,3.6,69,0.00,,---,0.26,VWS V13.01,2013-01-18 08:20:00,
2013-01-18 03:30:00,59.2,49.0,29.76,WNW,292,0.0,0.0,69,0.00,,---,0.26,VWS V13.01,2013-01-18 08:30:00,
2013-01-18 03:40:00,59.2,49.0,29.77,WNW,292,0.9,0.9,69,0.00,,---,0.26,VWS V13.01,2013-01-18 08:40:00,
2013-01-18 03:50:00,59.2,49.0,29.77,NNW,338,4.7,8.5,69,0.00,,---,0.26,VWS V13.01,2013-01-18 08:50:00,
2013-01-18 04:00:00,59.2,49.4,29.77,WNW,292,0.7,0.7,70,0.00,,---,0.18,VWS V13.01,2013-01-18 09:00:00,
2013-01-18 04:10:00,59.0,49.2,29.77,WNW,292,12.5,12.5,70,0.00,,---,0.18,VWS V13.01,2013-01-18 09:10:00,
2013-01-18 04:20:00,58.8,49.1,29.77,NNW,338,0.0,2.2,70,0.00,,---,0.18,VWS V13.01,2013-01-18 09:20:00,
2013-01-18 04:25:00,58.8,49.1,29.77,WNW,292,1.1,1.1,70,0.00,,---,0.18,VWS V13.01,2013-01-18 09:25:00,
2013-01-18 04:35:00,58.8,49.1,29.78,NNW,338,1.8,3.6,70,0.00,,---,0.18,VWS V13.01,2013-01-18 09:35:00,
2013-01-18 04:40:00,58.8,49.1,29.78,NW,315,4.3,4.3,70,0.00,,---,0.18,VWS V13.01,2013-01-18 09:40:00,
2013-01-18 04:50:00,58.8,49.1,29.78,NW,315,5.1,5.1,70,0.00,,---,0.18,VWS V13.01,2013-01-18 09:50:00,
2013-01-18 05:00:00,58.8,49.1,29.78,NNW,338,4.7,4.7,70,0.00,,---,0.16,VWS V13.01,2013-01-18 10:00:00,
2013-01-18 05:10:00,58.3,48.2,29.78,NNW,338,1.3,6.7,69,0.00,,---,0.16,VWS V13.01,2013-01-18 10:10:00,
2013-01-18 05:20:00,57.9,47.4,29.79,NW,315,1.6,1.6,68,0.00,,---,0.16,VWS V13.01,2013-01-18 10:20:00,
2013-01-18 05:30:00,57.7,47.7,29.79,NNW,338,2.0,7.2,69,0.00,,---,0.16,VWS V13.01,2013-01-18 10:30:00,
2013-01-18 05:40:00,57.0,46.6,29.80,NNW,338,9.2,9.2,68,0.00,,---,0.16,VWS V13.01,2013-01-18 10:40:00,
2013-01-18 05:45:00,57.0,46.6,29.80,North,0,2.5,9.2,68,0.00,,---,0.16,VWS V13.01,2013-01-18 10:45:00,
2013-01-18 05:55:00,56.3,45.9,29.80,NNW,338,0.0,9.0,68,0.00,,---,0.16,VWS V13.01,2013-01-18 10:55:00,
2013-01-18 06:05:00,56.3,45.5,29.81,North,0,1.1,7.4,67,0.00,,---,0.16,VWS V13.01,2013-01-18 11:05:00,
2013-01-18 06:15:00,56.1,45.7,29.82,North,0,0.9,9.2,68,0.00,,---,0.16,VWS V13.01,2013-01-18 11:15:00,
2013-01-18 06:20:00,55.9,45.5,29.82,NNW,338,4.3,4.3,68,0.00,,---,0.16,VWS V13.01,2013-01-18 11:20:00,
2013-01-18 06:30:00,55.6,45.2,29.83,NNE,22,5.6,7.4,68,0.00,,---,0.16,VWS V13.01,2013-01-18 11:30:00,
2013-01-18 06:35:00,55.2,44.9,29.83,NNW,338,6.9,10.3,68,0.00,,---,0.16,VWS V13.01,2013-01-18 11:35:00,
2013-01-18 06:45:00,54.9,44.9,29.83,North,0,5.8,5.8,69,0.00,,---,0.16,VWS V13.01,2013-01-18 11:45:00,
2013-01-18 06:55:00,54.3,44.4,29.84,NNE,22,9.2,9.2,69,0.00,,---,0.16,VWS V13.01,2013-01-18 11:55:00,
2013-01-18 07:05:00,53.8,43.9,29.84,NNW,338,7.4,7.4,69,0.00,,---,0.16,VWS V13.01,2013-01-18 12:05:00,
2013-01-18 07:15:00,53.8,43.9,29.84,WNW,292,9.8,9.8,69,0.00,,---,0.16,VWS V13.01,2013-01-18 12:15:00,
2013-01-18 07:20:00,53.8,43.9,29.84,North,0,3.4,9.8,69,0.00,,---,0.16,VWS V13.01,2013-01-18 12:20:00,
2013-01-18 07:30:00,54.0,44.0,29.84,North,0,7.4,10.5,69,0.00,,---,0.16,VWS V13.01,2013-01-18 12:30:00,
2013-01-18 07:40:00,54.1,44.2,29.85,NW,315,0.0,0.0,69,0.00,,---,0.16,VWS V13.01,2013-01-18 12:40:00,
2013-01-18 07:50:00,54.5,44.5,29.85,NW,315,0.0,4.5,69,0.00,,---,0.16,VWS V13.01,2013-01-18 12:50:00,
2013-01-18 08:00:00,54.7,44.7,29.85,NNW,338,4.3,4.3,69,0.00,,---,0.16,VWS V13.01,2013-01-18 13:00:00,
2013-01-18 08:05:00,54.9,44.9,29.85,NNW,338,1.1,4.3,69,0.00,,---,0.16,VWS V13.01,2013-01-18 13:05:00,
2013-01-18 08:15:00,54.7,44.3,29.86,NNW,338,1.8,4.0,68,0.00,,---,0.16,VWS V13.01,2013-01-18 13:15:00,
2013-01-18 08:25:00,54.7,44.3,29.86,WNW,292,1.6,1.6,68,0.00,,---,0.16,VWS V13.01,2013-01-18 13:25:00,
2013-01-18 08:35:00,55.0,44.7,29.86,NW,315,5.6,6.3,68,0.00,,---,0.16,VWS V13.01,2013-01-18 13:35:00,
2013-01-18 08:45:00,55.2,44.9,29.87,NNE,22,0.0,5.8,68,0.00,,---,0.16,VWS V13.01,2013-01-18 13:45:00,
2013-01-18 08:50:00,55.2,44.9,29.87,North,0,1.8,1.8,68,0.00,,---,0.16,VWS V13.01,2013-01-18 13:50:00,
2013-01-18 09:00:00,56.5,45.7,29.88,NNW,338,1.8,10.1,67,0.00,,---,0.16,VWS V13.01,2013-01-18 14:00:00,
2013-01-18 09:10:00,56.8,46.0,29.88,NW,315,6.5,6.5,67,0.00,,---,0.16,VWS V13.01,2013-01-18 14:10:00,
2013-01-18 09:20:00,57.4,46.1,29.88,NW,315,0.7,12.3,66,0.00,,---,0.16,VWS V13.01,2013-01-18 14:20:00,
2013-01-18 09:25:00,57.4,46.1,29.88,NW,315,0.7,0.7,66,0.00,,---,0.16,VWS V13.01,2013-01-18 14:25:00,
2013-01-18 09:35:00,58.1,46.4,29.88,WNW,292,2.0,5.6,65,0.00,,---,0.16,VWS V13.01,2013-01-18 14:35:00,
2013-01-18 09:45:00,59.0,47.3,29.88,West,270,8.3,8.3,65,0.00,,---,0.16,VWS V13.01,2013-01-18 14:45:00,
2013-01-18 09:55:00,59.5,47.8,29.88,West,270,1.3,8.3,65,0.00,,---,0.16,VWS V13.01,2013-01-18 14:55:00,
2013-01-18 10:05:00,60.3,48.0,29.88,NNW,338,1.1,4.5,64,0.00,,---,0.16,VWS V13.01,2013-01-18 15:05:00,
2013-01-18 10:10:00,60.4,48.2,29.89,North,0,0.2,4.5,64,0.00,,---,0.16,VWS V13.01,2013-01-18 15:10:00,
2013-01-18 10:20:00,60.8,48.1,29.88,North,0,1.3,5.4,63,0.00,,---,0.16,VWS V13.01,2013-01-18 15:20:00,
2013-01-18 10:25:00,61.0,48.3,29.88,NW,315,6.0,6.0,63,0.00,,---,0.16,VWS V13.01,2013-01-18 15:25:00,
2013-01-18 10:35:00,61.5,48.4,29.88,WSW,248,1.8,6.5,62,0.00,,---,0.16,VWS V13.01,2013-01-18 15:35:00,
2013-01-18 10:45:00,61.5,48.4,29.88,NNW,338,5.1,5.1,62,0.00,,---,0.16,VWS V13.01,2013-01-18 15:45:00,
2013-01-18 10:50:00,62.4,49.7,29.88,NNW,338,6.7,6.7,63,0.00,,---,0.16,VWS V13.01,2013-01-18 15:50:00,
2013-01-18 11:00:00,63.3,50.1,29.88,NW,315,0.4,0.4,62,0.00,,---,0.16,VWS V13.01,2013-01-18 16:00:00,
2013-01-18 11:05:00,63.7,49.1,29.88,WNW,292,5.1,5.1,59,0.00,,---,0.16,VWS V13.01,2013-01-18 16:05:00,
2013-01-18 11:15:00,63.7,50.0,29.87,NNW,338,0.0,1.3,61,0.00,,---,0.16,VWS V13.01,2013-01-18 16:15:00,
2013-01-18 11:25:00,64.6,50.0,29.87,NNW,338,0.4,0.4,59,0.00,,---,0.16,VWS V13.01,2013-01-18 16:25:00,
2013-01-18 11:35:00,64.6,50.0,29.87,NW,315,2.7,2.7,59,0.00,,---,0.16,VWS V13.01,2013-01-18 16:35:00,
2013-01-18 11:40:00,64.9,50.3,29.86,NNW,338,2.0,2.7,59,0.00,,---,0.16,VWS V13.01,2013-01-18 16:40:00,
2013-01-18 11:50:00,65.1,50.5,29.86,North,0,3.6,4.9,59,0.00,,---,0.16,VWS V13.01,2013-01-18 16:50:00,
2013-01-18 12:00:00,66.0,51.3,29.85,West,270,2.2,4.9,59,0.00,,---,0.16,VWS V13.01,2013-01-18 17:00:00,
2013-01-18 12:10:00,66.7,51.5,29.85,NNE,22,4.7,4.7,58,0.00,,---,0.16,VWS V13.01,2013-01-18 17:10:00,
2013-01-18 12:20:00,67.3,52.0,29.84,West,270,0.0,3.8,58,0.00,,---,0.16,VWS V13.01,2013-01-18 17:20:00,
2013-01-18 12:30:00,67.6,51.9,29.84,NW,315,0.0,0.0,57,0.00,,---,0.16,VWS V13.01,2013-01-18 17:30:00,
2013-01-18 12:40:00,68.4,53.0,29.83,NE,45,2.2,2.2,58,0.00,,---,0.16,VWS V13.01,2013-01-18 17:40:00,
2013-01-18 12:50:00,68.5,52.7,29.83,North,0,3.4,3.4,57,0.00,,---,0.16,VWS V13.01,2013-01-18 17:50:00,
2013-01-18 12:55:00,69.1,53.2,29.82,NNW,338,0.0,6.9,57,0.00,,---,0.16,VWS V13.01,2013-01-18 17:55:00,
2013-01-18 13:05:00,69.8,53.9,29.82,NNW,338,0.0,2.2,57,0.00,,---,0.00,VWS V13.01,2013-01-18 18:05:00,
2013-01-18 13:15:00,69.6,53.7,29.82,ENE,68,4.7,8.1,57,0.00,,---,0.00,VWS V13.01,2013-01-18 18:15:00,
2013-01-18 13:20:00,69.3,53.9,29.81,NE,45,8.1,8.1,58,0.00,,---,0.00,VWS V13.01,2013-01-18 18:20:00,
2013-01-18 13:30:00,69.1,54.6,29.81,ENE,68,2.2,9.2,60,0.00,,---,0.00,VWS V13.01,2013-01-18 18:30:00,
2013-01-18 13:35:00,69.1,54.6,29.81,ENE,68,2.2,2.2,60,0.00,,---,0.00,VWS V13.01,2013-01-18 18:35:00,
2013-01-18 13:40:00,68.9,54.9,29.81,North,0,6.3,6.3,61,0.00,,---,0.00,VWS V13.01,2013-01-18 18:40:00,
2013-01-18 13:50:00,69.6,56.0,29.81,North,0,2.7,2.7,62,0.00,,---,0.00,VWS V13.01,2013-01-18 18:50:00,
2013-01-18 13:55:00,70.3,56.3,29.81,NNE,22,4.5,4.5,61,0.00,,---,0.00,VWS V13.01,2013-01-18 18:55:00,
2013-01-18 14:00:00,70.3,56.3,29.80,ENE,68,7.8,7.8,61,0.00,,---,0.00,VWS V13.01,2013-01-18 19:00:00,
2013-01-18 14:10:00,69.6,56.0,29.80,NE,45,4.0,4.0,62,0.00,,---,0.00,VWS V13.01,2013-01-18 19:10:00,
2013-01-18 14:15:00,69.6,56.5,29.80,North,0,6.0,6.0,63,0.00,,---,0.00,VWS V13.01,2013-01-18 19:15:00,
2013-01-18 14:25:00,69.6,56.5,29.80,NE,45,8.5,8.5,63,0.00,,---,0.00,VWS V13.01,2013-01-18 19:25:00,
2013-01-18 14:35:00,69.4,56.8,29.80,North,0,2.5,10.5,64,0.00,,---,0.00,VWS V13.01,2013-01-18 19:35:00,
2013-01-18 14:45:00,69.3,56.6,29.79,North,0,2.7,7.2,64,0.00,,---,0.00,VWS V13.01,2013-01-18 19:45:00,
2013-01-18 14:50:00,69.3,56.6,29.80,NE,45,4.9,4.9,64,0.00,,---,0.00,VWS V13.01,2013-01-18 19:50:00,
2013-01-18 15:00:00,69.6,56.9,29.79,NNE,22,7.4,11.9,64,0.00,,---,0.00,VWS V13.01,2013-01-18 20:00:00,
2013-01-18 15:10:00,70.0,57.3,29.79,WSW,248,5.1,7.4,64,0.00,,---,0.00,VWS V13.01,2013-01-18 20:10:00,
2013-01-18 15:20:00,70.0,57.7,29.80,WSW,248,6.7,7.4,65,0.00,,---,0.00,VWS V13.01,2013-01-18 20:20:00,
2013-01-18 15:30:00,70.2,58.3,29.79,NE,45,6.9,6.9,66,0.00,,---,0.00,VWS V13.01,2013-01-18 20:30:00,
2013-01-18 15:40:00,70.0,58.1,29.79,WSW,248,9.6,9.6,66,0.00,,---,0.00,VWS V13.01,2013-01-18 20:40:00,
2013-01-18 15:50:00,70.2,58.3,29.80,WSW,248,2.9,5.6,66,0.00,,---,0.00,VWS V13.01,2013-01-18 20:50:00,
2013-01-18 16:00:00,70.2,58.3,29.80,NNE,22,5.1,9.6,66,0.00,,---,0.00,VWS V13.01,2013-01-18 21:00:00,
2013-01-18 16:10:00,69.6,57.8,29.80,North,0,6.3,9.4,66,0.00,,---,0.00,VWS V13.01,2013-01-18 21:10:00,
2013-01-18 16:20:00,69.6,57.8,29.80,ENE,68,3.8,7.6,66,0.00,,---,0.00,VWS V13.01,2013-01-18 21:20:00,
2013-01-18 16:30:00,69.8,58.4,29.80,NE,45,2.5,9.0,67,0.00,,---,0.00,VWS V13.01,2013-01-18 21:30:00,
2013-01-18 16:40:00,69.8,58.4,29.80,NNE,22,6.5,6.5,67,0.00,,---,0.00,VWS V13.01,2013-01-18 21:40:00,
2013-01-18 16:45:00,69.8,57.5,29.80,North,0,2.7,7.6,65,0.00,,---,0.00,VWS V13.01,2013-01-18 21:45:00,
2013-01-18 16:55:00,70.0,57.3,29.80,ENE,68,6.7,6.7,64,0.00,,---,0.00,VWS V13.01,2013-01-18 21:55:00,
2013-01-18 17:00:00,70.0,57.3,29.81,NNE,22,3.4,10.5,64,0.00,,---,0.00,VWS V13.01,2013-01-18 22:00:00,
2013-01-18 17:10:00,70.0,57.3,29.81,East,90,11.6,15.7,64,0.00,,---,0.00,VWS V13.01,2013-01-18 22:10:00,
2013-01-18 17:15:00,70.0,57.3,29.81,NE,45,4.7,11.6,64,0.00,,---,0.00,VWS V13.01,2013-01-18 22:15:00,
2013-01-18 17:25:00,70.0,57.3,29.81,ENE,68,6.5,6.5,64,0.00,,---,0.00,VWS V13.01,2013-01-18 22:25:00,
2013-01-18 17:35:00,70.0,56.8,29.81,East,90,13.0,13.0,63,0.00,,---,0.00,VWS V13.01,2013-01-18 22:35:00,
2013-01-18 17:45:00,70.0,56.4,29.81,ENE,68,3.4,10.7,62,0.00,,---,0.00,VWS V13.01,2013-01-18 22:45:00,
2013-01-18 17:55:00,70.0,56.4,29.82,NE,45,7.8,8.3,62,0.00,,---,0.00,VWS V13.01,2013-01-18 22:55:00,
2013-01-18 18:00:00,70.0,56.4,29.82,ENE,68,7.6,7.8,62,0.00,,---,0.00,VWS V13.01,2013-01-18 23:00:00,
2013-01-18 18:10:00,70.0,55.9,29.82,North,0,6.7,8.1,61,0.00,,---,0.00,VWS V13.01,2013-01-18 23:10:00,
2013-01-18 18:20:00,70.0,55.9,29.83,ENE,68,6.0,11.2,61,0.00,,---,0.00,VWS V13.01,2013-01-18 23:20:00,
2013-01-18 18:25:00,70.0,55.9,29.82,East,90,7.6,7.6,61,0.00,,---,0.00,VWS V13.01,2013-01-18 23:25:00,
2013-01-18 18:35:00,70.0,55.9,29.83,ENE,68,7.8,7.8,61,0.00,,---,0.00,VWS V13.01,2013-01-18 23:35:00,
2013-01-18 18:45:00,70.0,55.9,29.83,NNE,22,8.7,8.7,61,0.00,,---,0.00,VWS V13.01,2013-01-18 23:45:00,
2013-01-18 18:55:00,70.0,55.0,29.83,ENE,68,6.0,6.0,59,0.00,,---,0.00,VWS V13.01,2013-01-18 23:55:00,
2013-01-18 19:05:00,70.0,55.0,29.84,East,90,2.0,7.8,59,0.00,,---,0.00,VWS V13.01,2013-01-19 00:05:00,
2013-01-18 19:10:00,70.0,55.0,29.84,ESE,112,3.6,6.0,59,0.00,,---,0.00,VWS V13.01,2013-01-19 00:10:00,
2013-01-18 19:20:00,70.2,55.2,29.84,East,90,10.5,10.5,59,0.00,,---,0.00,VWS V13.01,2013-01-19 00:20:00,
2013-01-18 19:30:00,70.2,54.7,29.84,ENE,68,1.6,9.6,58,0.00,,---,0.00,VWS V13.01,2013-01-19 00:30:00,
2013-01-18 19:40:00,70.2,54.7,29.84,NE,45,1.6,4.7,58,0.00,,---,0.00,VWS V13.01,2013-01-19 00:40:00,
2013-01-18 19:50:00,70.0,55.0,29.84,NE,45,6.9,10.1,59,0.00,,---,0.00,VWS V13.01,2013-01-19 00:50:00,
2013-01-18 20:00:00,70.0,55.5,29.84,ENE,68,7.2,9.4,60,0.00,,---,0.00,VWS V13.01,2013-01-19 01:00:00,
2013-01-18 20:10:00,70.0,55.5,29.84,NNE,22,13.0,13.0,60,0.00,,---,0.00,VWS V13.01,2013-01-19 01:10:00,
2013-01-18 20:20:00,70.0,55.5,29.84,NE,45,8.1,10.1,60,0.00,,---,0.00,VWS V13.01,2013-01-19 01:20:00,
2013-01-18 20:25:00,70.0,55.9,29.84,East,90,7.8,8.1,61,0.00,,---,0.00,VWS V13.01,2013-01-19 01:25:00,
2013-01-18 20:35:00,70.0,55.9,29.84,East,90,9.4,9.4,61,0.00,,---,0.00,VWS V13.01,2013-01-19 01:35:00,
2013-01-18 20:40:00,70.0,55.9,29.84,NE,45,2.7,9.4,61,0.00,,---,0.00,VWS V13.01,2013-01-19 01:40:00,
2013-01-18 20:50:00,70.0,55.9,29.84,ENE,68,9.6,9.6,61,0.00,,---,0.00,VWS V13.01,2013-01-19 01:50:00,
2013-01-18 21:00:00,70.0,55.5,29.84,ENE,68,13.9,13.9,60,0.00,,---,0.00,VWS V13.01,2013-01-19 02:00:00,
2013-01-18 21:10:00,70.0,55.9,29.84,NNE,22,6.0,8.3,61,0.00,,---,0.00,VWS V13.01,2013-01-19 02:10:00,
2013-01-18 21:15:00,70.0,56.4,29.84,NE,45,3.6,6.0,62,0.00,,---,0.00,VWS V13.01,2013-01-19 02:15:00,
2013-01-18 21:25:00,70.0,55.9,29.84,NE,45,13.2,13.2,61,0.00,,---,0.00,VWS V13.01,2013-01-19 02:25:00,
2013-01-18 21:35:00,70.2,56.1,29.84,NE,45,16.3,16.3,61,0.00,,---,0.00,VWS V13.01,2013-01-19 02:35:00,
2013-01-18 21:45:00,70.2,56.1,29.84,NE,45,4.3,9.0,61,0.00,,---,0.00,VWS V13.01,2013-01-19 02:45:00,
2013-01-18 21:50:00,70.2,55.6,29.84,East,90,5.4,9.0,60,0.00,,---,0.00,VWS V13.01,2013-01-19 02:50:00,
2013-01-18 22:00:00,70.2,55.2,29.85,NE,45,9.8,9.8,59,0.00,,---,0.00,VWS V13.01,2013-01-19 03:00:00,
2013-01-18 22:10:00,70.2,54.7,29.84,NE,45,7.6,7.6,58,0.00,,---,0.00,VWS V13.01,2013-01-19 03:10:00,
2013-01-18 22:15:00,70.2,54.7,29.84,NE,45,8.7,8.7,58,0.00,,---,0.00,VWS V13.01,2013-01-19 03:15:00,
2013-01-18 22:25:00,70.3,55.3,29.84,East,90,6.9,6.9,59,0.00,,---,0.00,VWS V13.01,2013-01-19 03:25:00,
2013-01-18 22:30:00,70.2,55.2,29.84,NNE,22,1.8,6.9,59,0.00,,---,0.00,VWS V13.01,2013-01-19 03:30:00,
2013-01-18 22:40:00,70.2,55.2,29.84,East,90,0.9,0.9,59,0.00,,---,0.00,VWS V13.01,2013-01-19 03:40:00,
2013-01-18 22:50:00,70.0,55.0,29.83,East,90,9.8,9.8,59,0.00,,---,0.00,VWS V13.01,2013-01-19 03:50:00,
2013-01-18 23:00:00,70.0,55.9,29.84,East,90,4.9,9.8,61,0.00,,---,0.00,VWS V13.01,2013-01-19 04:00:00,
2013-01-18 23:10:00,70.0,55.9,29.84,East,90,2.5,3.4,61,0.00,,---,0.00,VWS V13.01,2013-01-19 04:10:00,
2013-01-18 23:20:00,70.0,55.9,29.84,East,90,1.6,5.1,61,0.00,,---,0.00,VWS V13.01,2013-01-19 04:20:00,
2013-01-18 23:30:00,70.0,55.9,29.83,ESE,112,8.1,8.3,61,0.00,,---,0.00,VWS V13.01,2013-01-19 04:30:00,
2013-01-18 23:40:00,70.0,56.4,29.83,East,90,5.8,5.8,62,0.00,,---,0.00,VWS V13.01,2013-01-19 04:40:00,
2013-01-18 23:50:00,70.2,56.5,29.83,ENE,68,2.9,4.3,62,0.00,,---,0.00,VWS V13.01,2013-01-19 04:50:00,